Time,TemperatureF,DewpointF,PressureIn,WindDirection,WindDirectionDegrees,WindSpeedMPH,WindSpeedGustMPH,Humidity,HourlyPrecipIn,Conditions,Clouds,dailyrainin,SoftwareType,DateUTC
2013-02-22 00:00:00,45.9,32.8,27.23,NNE,16,0.0,0.0,60,0.00,,---,0.00,VWS V13.01,2013-02-22 07:00:00,
2013-02-22 00:05:00,45.9,32.8,27.23,NNE,16,0.0,0.0,60,0.00,,---,0.00,VWS V13.01,2013-02-22 07:05:00,
2013-02-22 00:10:00,45.7,32.6,27.23,NNE,19,0.0,0.0,60,0.00,,---,0.00,VWS V13.01,2013-02-22 07:10:00,
2013-02-22 00:16:00,45.5,32.4,27.23,NNE,23,0.0,0.0,60,0.00,,---,0.00,VWS V13.01,2013-02-22 07:16:00,
2013-02-22 00:21:00,45.3,32.3,27.23,NE,49,4.0,4.0,60,0.00,,---,0.00,VWS V13.01,2013-02-22 07:21:00,
2013-02-22 00:26:00,45.1,32.5,27.23,NNE,26,3.1,4.0,61,0.00,,---,0.00,VWS V13.01,2013-02-22 07:26:00,
2013-02-22 00:32:00,45.0,32.3,27.23,NNE,31,0.0,0.0,61,0.00,,---,0.00,VWS V13.01,2013-02-22 07:32:00,
2013-02-22 00:37:00,44.8,32.6,27.23,NNE,31,0.0,0.0,62,0.00,,---,0.00,VWS V13.01,2013-02-22 07:37:00,
2013-02-22 00:42:00,44.8,32.6,27.23,NNE,31,0.0,0.0,62,0.00,,---,0.00,VWS V13.01,2013-02-22 07:42:00,
2013-02-22 00:48:00,44.6,32.8,27.23,NNE,31,0.0,0.0,63,0.00,,---,0.00,VWS V13.01,2013-02-22 07:48:00,
2013-02-22 00:53:00,44.4,32.6,27.23,NNE,31,0.0,0.0,63,0.00,,---,0.00,VWS V13.01,2013-02-22 07:53:00,
2013-02-22 00:58:00,44.2,32.8,27.23,NNE,31,0.0,0.0,64,0.00,,---,0.00,VWS V13.01,2013-02-22 07:58:00,
2013-02-22 01:03:00,44.1,33.1,27.23,NNE,31,0.0,0.0,65,0.00,,---,0.00,VWS V13.01,2013-02-22 08:03:00,
2013-02-22 01:08:00,43.9,32.9,27.23,NNE,31,0.0,0.0,65,0.00,,---,0.00,VWS V13.01,2013-02-22 08:08:00,
2013-02-22 01:13:00,43.7,32.7,27.23,NNE,31,0.0,0.0,65,0.00,,---,0.00,VWS V13.01,2013-02-22 08:13:00,
2013-02-22 01:19:00,43.5,32.5,27.23,NNE,31,0.0,0.0,65,0.00,,---,0.00,VWS V13.01,2013-02-22 08:19:00,
2013-02-22 01:24:00,43.2,32.6,27.23,NNE,31,0.0,0.0,66,0.00,,---,0.00,VWS V13.01,2013-02-22 08:24:00,
2013-02-22 01:29:00,43.0,32.8,27.23,NNE,31,0.0,0.0,67,0.00,,---,0.00,VWS V13.01,2013-02-22 08:29:00,
2013-02-22 01:35:00,42.4,32.6,27.23,NNE,31,0.0,0.0,68,0.00,,---,0.00,VWS V13.01,2013-02-22 08:35:00,
2013-02-22 01:40:00,42.3,32.8,27.23,NNE,31,0.0,0.0,69,0.00,,---,0.00,VWS V13.01,2013-02-22 08:40:00,
2013-02-22 01:45:00,41.9,32.8,27.23,NNE,31,0.0,0.0,70,0.00,,---,0.00,VWS V13.01,2013-02-22 08:45:00,
2013-02-22 01:50:00,41.9,33.2,27.23,NNE,31,0.0,0.0,71,0.00,,---,0.00,VWS V13.01,2013-02-22 08:50:00,
2013-02-22 01:56:00,42.1,33.4,27.23,NNE,31,0.0,0.0,71,0.00,,---,0.00,VWS V13.01,2013-02-22 08:56:00,
2013-02-22 02:01:00,42.1,33.7,27.23,NNE,31,0.0,0.0,72,0.00,,---,0.00,VWS V13.01,2013-02-22 09:01:00,
2013-02-22 02:06:00,42.1,34.1,27.23,NNE,31,0.0,0.0,73,0.00,,---,0.00,VWS V13.01,2013-02-22 09:06:00,
2013-02-22 02:11:00,42.3,34.2,27.23,NNE,31,0.0,0.0,73,0.00,,---,0.00,VWS V13.01,2013-02-22 09:11:00,
2013-02-22 02:16:00,42.3,34.2,27.23,NNE,31,0.0,0.0,73,0.00,,---,0.00,VWS V13.01,2013-02-22 09:16:00,
2013-02-22 02:21:00,42.3,34.6,27.23,NNE,31,0.0,0.0,74,0.00,,---,0.00,VWS V13.01,2013-02-22 09:21:00,
2013-02-22 02:26:00,42.4,34.8,27.23,NNE,31,0.0,0.0,74,0.00,,---,0.00,VWS V13.01,2013-02-22 09:26:00,
2013-02-22 02:31:00,42.4,34.8,27.23,South,185,0.0,0.0,74,0.00,,---,0.00,VWS V13.01,2013-02-22 09:31:00,
2013-02-22 02:37:00,42.3,34.6,27.23,SSW,193,0.0,0.0,74,0.00,,---,0.00,VWS V13.01,2013-02-22 09:37:00,
2013-02-22 02:42:00,42.3,34.6,27.23,SSW,193,0.0,0.0,74,0.00,,---,0.00,VWS V13.01,2013-02-22 09:42:00,
2013-02-22 02:47:00,42.3,34.6,27.23,SSW,193,0.0,0.0,74,0.00,,---,0.00,VWS V13.01,2013-02-22 09:47:00,
2013-02-22 02:52:00,42.3,34.9,27.23,SSW,193,0.0,0.0,75,0.00,,---,0.00,VWS V13.01,2013-02-22 09:52:00,
2013-02-22 02:58:00,42.1,34.7,27.23,SSW,193,0.0,0.0,75,0.00,,---,0.00,VWS V13.01,2013-02-22 09:58:00,
2013-02-22 03:03:00,42.1,34.7,27.23,SSW,193,0.0,0.0,75,0.00,,---,0.00,VWS V13.01,2013-02-22 10:03:00,
2013-02-22 03:08:00,42.1,34.7,27.23,SSW,193,0.0,0.0,75,0.00,,---,0.00,VWS V13.01,2013-02-22 10:08:00,
2013-02-22 03:14:00,42.1,34.7,27.23,SSW,193,0.0,0.0,75,0.00,,---,0.00,VWS V13.01,2013-02-22 10:14:00,
2013-02-22 03:19:00,41.9,34.6,27.23,SSW,193,0.0,0.0,75,0.00,,---,0.00,VWS V13.01,2013-02-22 10:19:00,
2013-02-22 03:24:00,41.9,34.6,27.23,SSW,193,0.0,0.0,75,0.00,,---,0.00,VWS V13.01,2013-02-22 10:24:00,
2013-02-22 03:29:00,41.7,34.7,27.23,SSW,193,0.0,0.0,76,0.00,,---,0.00,VWS V13.01,2013-02-22 10:29:00,
2013-02-22 03:35:00,41.5,34.5,27.23,SSW,193,0.0,0.0,76,0.00,,---,0.00,VWS V13.01,2013-02-22 10:35:00,
2013-02-22 03:40:00,41.2,34.2,27.23,SSW,193,0.0,0.0,76,0.00,,---,0.00,VWS V13.01,2013-02-22 10:40:00,
2013-02-22 03:45:00,40.8,34.2,27.23,SSW,193,0.0,0.0,77,0.00,,---,0.00,VWS V13.01,2013-02-22 10:45:00,
2013-02-22 03:51:00,40.6,34.0,27.23,SSW,193,0.0,0.0,77,0.00,,---,0.00,VWS V13.01,2013-02-22 10:51:00,
2013-02-22 03:56:00,40.6,34.0,27.23,SSW,193,0.0,0.0,77,0.00,,---,0.00,VWS V13.01,2013-02-22 10:56:00,
2013-02-22 04:01:00,40.5,33.8,27.23,SSW,193,0.0,0.0,77,0.00,,---,0.00,VWS V13.01,2013-02-22 11:01:00,
2013-02-22 04:06:00,40.3,33.7,27.23,NW,308,0.0,2.7,77,0.00,,---,0.00,VWS V13.01,2013-02-22 11:06:00,
2013-02-22 04:12:00,40.5,34.2,27.23,NW,308,0.0,0.0,78,0.00,,---,0.00,VWS V13.01,2013-02-22 11:12:00,
2013-02-22 04:17:00,40.5,34.2,27.23,NW,308,0.0,0.0,78,0.00,,---,0.00,VWS V13.01,2013-02-22 11:17:00,
2013-02-22 04:22:00,40.5,34.2,27.23,West,274,0.0,0.0,78,0.00,,---,0.00,VWS V13.01,2013-02-22 11:22:00,
2013-02-22 04:27:00,40.5,34.5,27.23,West,274,0.0,0.0,79,0.00,,---,0.00,VWS V13.01,2013-02-22 11:27:00,
2013-02-22 04:32:00,40.3,34.3,27.23,West,274,0.0,0.0,79,0.00,,---,0.00,VWS V13.01,2013-02-22 11:32:00,
2013-02-22 04:38:00,40.1,34.1,27.23,West,274,0.0,0.0,79,0.00,,---,0.00,VWS V13.01,2013-02-22 11:38:00,
2013-02-22 04:43:00,39.9,34.0,27.23,West,273,0.0,0.0,79,0.00,,---,0.00,VWS V13.01,2013-02-22 11:43:00,
2013-02-22 04:48:00,39.6,33.6,27.23,West,273,0.0,0.0,79,0.00,,---,0.00,VWS V13.01,2013-02-22 11:48:00,
2013-02-22 04:53:00,39.4,33.7,27.23,West,273,0.0,0.0,80,0.00,,---,0.00,VWS V13.01,2013-02-22 11:53:00,
2013-02-22 04:59:00,39.2,33.6,27.23,West,273,0.0,0.0,80,0.00,,---,0.00,VWS V13.01,2013-02-22 11:59:00,
2013-02-22 05:04:00,39.0,33.4,27.23,West,273,0.0,0.0,80,0.00,,---,0.00,VWS V13.01,2013-02-22 12:04:00,
2013-02-22 05:09:00,38.8,33.5,27.23,West,273,0.0,0.0,81,0.00,,---,0.00,VWS V13.01,2013-02-22 12:09:00,
2013-02-22 05:14:00,38.7,33.3,27.23,West,273,0.0,0.0,81,0.00,,---,0.00,VWS V13.01,2013-02-22 12:14:00,
2013-02-22 05:20:00,38.7,33.3,27.23,West,273,0.0,0.0,81,0.00,,---,0.00,VWS V13.01,2013-02-22 12:20:00,
2013-02-22 05:25:00,38.5,33.2,27.26,West,273,0.0,0.0,81,0.00,,---,0.00,VWS V13.01,2013-02-22 12:25:00,
2013-02-22 05:30:00,38.3,33.0,27.26,West,273,0.0,0.0,81,0.00,,---,0.00,VWS V13.01,2013-02-22 12:30:00,
2013-02-22 05:36:00,38.1,32.8,27.26,West,273,0.0,0.0,81,0.00,,---,0.00,VWS V13.01,2013-02-22 12:36:00,
2013-02-22 05:41:00,38.1,33.1,27.26,West,273,0.0,0.0,82,0.00,,---,0.00,VWS V13.01,2013-02-22 12:41:00,
2013-02-22 05:46:00,38.1,33.1,27.26,West,273,0.0,0.0,82,0.00,,---,0.00,VWS V13.01,2013-02-22 12:46:00,
2013-02-22 05:51:00,37.9,33.0,27.26,West,273,0.0,0.0,82,0.00,,---,0.00,VWS V13.01,2013-02-22 12:51:00,
2013-02-22 05:56:00,37.8,32.8,27.26,West,273,0.0,0.0,82,0.00,,---,0.00,VWS V13.01,2013-02-22 12:56:00,
2013-02-22 06:01:00,37.8,32.8,27.26,West,273,0.0,0.0,82,0.00,,---,0.00,VWS V13.01,2013-02-22 13:01:00,
2013-02-22 06:07:00,37.6,32.6,27.26,West,273,0.0,0.0,82,0.00,,---,0.00,VWS V13.01,2013-02-22 13:07:00,
2013-02-22 06:12:00,37.4,32.4,27.26,West,273,0.0,0.0,82,0.00,,---,0.00,VWS V13.01,2013-02-22 13:12:00,
2013-02-22 06:17:00,37.4,32.4,27.26,West,273,0.0,0.0,82,0.00,,---,0.00,VWS V13.01,2013-02-22 13:17:00,
2013-02-22 06:23:00,37.4,32.4,27.26,West,273,0.0,0.0,82,0.00,,---,0.00,VWS V13.01,2013-02-22 13:23:00,
2013-02-22 06:28:00,37.2,32.5,27.26,West,273,0.0,0.0,83,0.00,,---,0.00,VWS V13.01,2013-02-22 13:28:00,
2013-02-22 06:33:00,37.2,32.5,27.26,West,273,0.0,0.0,83,0.00,,---,0.00,VWS V13.01,2013-02-22 13:33:00,
2013-02-22 06:38:00,37.2,32.5,27.29,West,273,0.0,0.0,83,0.00,,---,0.00,VWS V13.01,2013-02-22 13:38:00,
2013-02-22 06:44:00,37.4,32.7,27.29,West,273,0.0,0.0,83,0.00,,---,0.00,VWS V13.01,2013-02-22 13:44:00,
2013-02-22 06:49:00,37.6,33.2,27.29,West,273,0.0,0.0,84,0.00,,---,0.00,VWS V13.01,2013-02-22 13:49:00,
2013-02-22 06:54:00,37.6,33.2,27.29,West,273,0.0,0.0,84,0.00,,---,0.00,VWS V13.01,2013-02-22 13:54:00,
2013-02-22 07:00:00,37.9,33.8,27.29,West,273,0.0,0.0,85,0.00,,---,0.00,VWS V13.01,2013-02-22 14:00:00,
2013-02-22 07:05:00,37.9,33.8,27.29,West,273,0.0,0.0,85,0.00,,---,0.00,VWS V13.01,2013-02-22 14:05:00,
2013-02-22 07:10:00,38.1,34.0,27.29,West,273,0.0,0.0,85,0.00,,---,0.00,VWS V13.01,2013-02-22 14:10:00,
2013-02-22 07:15:00,38.1,34.0,27.29,West,273,0.0,0.0,85,0.00,,---,0.00,VWS V13.01,2013-02-22 14:15:00,
2013-02-22 07:20:00,38.5,34.4,27.29,West,273,0.0,0.0,85,0.00,,---,0.00,VWS V13.01,2013-02-22 14:20:00,
2013-02-22 07:25:00,38.7,34.5,27.29,West,273,0.0,0.0,85,0.00,,---,0.00,VWS V13.01,2013-02-22 14:25:00,
2013-02-22 07:31:00,38.8,35.0,27.29,West,273,0.0,0.0,86,0.00,,---,0.00,VWS V13.01,2013-02-22 14:31:00,
2013-02-22 07:36:00,39.2,35.1,27.32,West,273,0.0,0.0,85,0.00,,---,0.00,VWS V13.01,2013-02-22 14:36:00,
2013-02-22 07:41:00,39.6,35.4,27.32,West,273,0.0,0.0,85,0.00,,---,0.00,VWS V13.01,2013-02-22 14:41:00,
2013-02-22 07:46:00,39.7,35.9,27.32,West,273,0.0,0.0,86,0.00,,---,0.00,VWS V13.01,2013-02-22 14:46:00,
2013-02-22 07:51:00,39.9,36.1,27.32,West,273,0.0,0.0,86,0.00,,---,0.00,VWS V13.01,2013-02-22 14:51:00,
2013-02-22 07:56:00,40.3,36.4,27.32,West,273,0.0,0.0,86,0.00,,---,0.00,VWS V13.01,2013-02-22 14:56:00,
2013-02-22 08:02:00,40.5,36.6,27.32,West,273,0.0,0.0,86,0.00,,---,0.00,VWS V13.01,2013-02-22 15:02:00,
2013-02-22 08:07:00,40.8,37.0,27.32,West,273,0.0,0.0,86,0.00,,---,0.00,VWS V13.01,2013-02-22 15:07:00,
2013-02-22 08:12:00,41.2,37.0,27.32,West,273,0.0,0.0,85,0.00,,---,0.00,VWS V13.01,2013-02-22 15:12:00,
2013-02-22 08:18:00,41.5,37.7,27.32,West,273,0.0,0.0,86,0.00,,---,0.00,VWS V13.01,2013-02-22 15:18:00,
2013-02-22 08:23:00,41.7,37.8,27.32,West,273,0.0,0.0,86,0.00,,---,0.00,VWS V13.01,2013-02-22 15:23:00,
2013-02-22 08:28:00,41.9,38.0,27.32,West,273,0.0,0.0,86,0.00,,---,0.00,VWS V13.01,2013-02-22 15:28:00,
2013-02-22 08:33:00,42.1,37.9,27.32,West,273,0.0,0.0,85,0.00,,---,0.00,VWS V13.01,2013-02-22 15:33:00,
2013-02-22 08:39:00,42.4,38.3,27.32,West,273,0.0,0.0,85,0.00,,---,0.00,VWS V13.01,2013-02-22 15:39:00,
2013-02-22 08:44:00,42.8,38.6,27.32,West,273,0.0,0.0,85,0.00,,---,0.00,VWS V13.01,2013-02-22 15:44:00,
2013-02-22 08:49:00,43.0,38.8,27.32,West,273,0.0,0.0,85,0.00,,---,0.00,VWS V13.01,2013-02-22 15:49:00,
2013-02-22 08:54:00,43.3,39.1,27.32,West,273,0.0,0.0,85,0.00,,---,0.00,VWS V13.01,2013-02-22 15:54:00,
2013-02-22 08:59:00,43.7,39.2,27.32,West,273,0.0,0.0,84,0.00,,---,0.00,VWS V13.01,2013-02-22 15:59:00,
2013-02-22 09:04:00,44.1,39.5,27.32,West,273,0.0,0.0,84,0.00,,---,0.00,VWS V13.01,2013-02-22 16:04:00,
2013-02-22 09:10:00,44.4,39.6,27.34,West,273,0.0,0.0,83,0.00,,---,0.00,VWS V13.01,2013-02-22 16:10:00,
2013-02-22 09:15:00,44.8,39.6,27.34,ESE,117,3.1,4.0,82,0.00,,---,0.00,VWS V13.01,2013-02-22 16:15:00,
2013-02-22 09:20:00,45.3,39.8,27.34,ESE,120,0.0,0.0,81,0.00,,---,0.00,VWS V13.01,2013-02-22 16:20:00,
2013-02-22 09:25:00,45.9,40.0,27.34,SE,134,4.0,4.9,80,0.00,,---,0.00,VWS V13.01,2013-02-22 16:25:00,
2013-02-22 09:31:00,46.2,40.1,27.34,SE,130,0.0,0.0,79,0.00,,---,0.00,VWS V13.01,2013-02-22 16:31:00,
2013-02-22 09:36:00,46.4,39.9,27.34,SSE,154,0.0,5.4,78,0.00,,---,0.00,VWS V13.01,2013-02-22 16:36:00,
2013-02-22 09:41:00,46.6,39.4,27.34,SSW,194,4.0,4.0,76,0.00,,---,0.00,VWS V13.01,2013-02-22 16:41:00,
2013-02-22 09:47:00,46.6,39.1,27.34,WSW,256,0.0,3.1,75,0.00,,---,0.00,VWS V13.01,2013-02-22 16:47:00,
2013-02-22 09:52:00,46.9,39.1,27.34,South,178,2.2,4.0,74,0.00,,---,0.00,VWS V13.01,2013-02-22 16:52:00,
2013-02-22 09:57:00,46.9,38.8,27.34,South,178,0.0,0.0,73,0.00,,---,0.00,VWS V13.01,2013-02-22 16:57:00,
2013-02-22 10:02:00,47.1,38.6,27.34,South,178,0.0,0.0,72,0.00,,---,0.00,VWS V13.01,2013-02-22 17:02:00,
2013-02-22 10:07:00,47.3,38.0,27.34,SSW,210,4.0,5.4,70,0.00,,---,0.00,VWS V13.01,2013-02-22 17:07:00,
2013-02-22 10:12:00,48.0,38.3,27.34,SSW,192,6.3,6.3,69,0.00,,---,0.00,VWS V13.01,2013-02-22 17:12:00,
2013-02-22 10:18:00,48.4,37.6,27.34,WSW,254,4.0,8.3,66,0.00,,---,0.00,VWS V13.01,2013-02-22 17:18:00,
2013-02-22 10:23:00,48.7,37.5,27.34,South,191,6.3,6.3,65,0.00,,---,0.00,VWS V13.01,2013-02-22 17:23:00,
2013-02-22 10:28:00,48.9,37.3,27.34,SSW,197,3.1,6.3,64,0.00,,---,0.00,VWS V13.01,2013-02-22 17:28:00,
2013-02-22 10:34:00,48.7,36.7,27.34,WSW,243,0.0,7.6,63,0.00,,---,0.00,VWS V13.01,2013-02-22 17:34:00,
2013-02-22 10:39:00,48.9,36.9,27.34,WSW,244,5.4,7.6,63,0.00,,---,0.00,VWS V13.01,2013-02-22 17:39:00,
2013-02-22 10:44:00,48.7,36.7,27.34,South,181,5.4,5.8,63,0.00,,---,0.00,VWS V13.01,2013-02-22 17:44:00,
2013-02-22 10:49:00,48.9,36.1,27.34,WSW,256,7.2,8.1,61,0.00,,---,0.00,VWS V13.01,2013-02-22 17:49:00,
2013-02-22 10:54:00,49.1,36.7,27.34,South,177,0.0,2.2,62,0.00,,---,0.00,VWS V13.01,2013-02-22 17:54:00,
2013-02-22 10:59:00,49.5,36.6,27.34,SW,236,0.0,2.7,61,0.00,,---,0.00,VWS V13.01,2013-02-22 17:59:00,
2013-02-22 11:05:00,49.5,36.2,27.34,SW,216,0.0,5.8,60,0.00,,---,0.00,VWS V13.01,2013-02-22 18:05:00,
2013-02-22 11:10:00,50.0,36.2,27.34,SW,216,0.0,0.0,59,0.00,,---,0.00,VWS V13.01,2013-02-22 18:10:00,
2013-02-22 11:15:00,49.6,35.9,27.34,SSW,192,0.0,3.6,59,0.00,,---,0.00,VWS V13.01,2013-02-22 18:15:00,
2013-02-22 11:20:00,50.2,36.0,27.34,West,278,4.0,4.9,58,0.00,,---,0.00,VWS V13.01,2013-02-22 18:20:00,
2013-02-22 11:25:00,49.6,35.0,27.34,NW,325,0.0,0.0,57,0.00,,---,0.00,VWS V13.01,2013-02-22 18:25:00,
2013-02-22 11:30:00,50.0,35.4,27.34,SSW,210,0.0,3.6,57,0.00,,---,0.00,VWS V13.01,2013-02-22 18:30:00,
2013-02-22 11:36:00,50.9,36.7,27.34,South,176,0.0,5.4,58,0.00,,---,0.00,VWS V13.01,2013-02-22 18:36:00,
2013-02-22 11:41:00,50.9,35.3,27.34,WNW,295,2.2,6.3,55,0.00,,---,0.00,VWS V13.01,2013-02-22 18:41:00,
2013-02-22 11:46:00,51.1,35.5,27.34,WNW,296,7.6,7.6,55,0.00,,---,0.00,VWS V13.01,2013-02-22 18:46:00,
2013-02-22 11:51:00,51.3,35.7,27.34,WNW,296,5.4,5.4,55,0.00,,---,0.00,VWS V13.01,2013-02-22 18:51:00,
2013-02-22 11:57:00,51.3,35.7,27.34,WNW,301,0.0,3.6,55,0.00,,---,0.00,VWS V13.01,2013-02-22 18:57:00,
2013-02-22 12:02:00,51.6,35.5,27.34,SW,216,5.8,5.8,54,0.00,,---,0.00,VWS V13.01,2013-02-22 19:02:00,
2013-02-22 12:07:00,51.4,34.9,27.34,West,273,5.4,6.3,53,0.00,,---,0.00,VWS V13.01,2013-02-22 19:07:00,
2013-02-22 12:12:00,52.2,35.1,27.34,SSW,199,2.7,3.6,52,0.00,,---,0.00,VWS V13.01,2013-02-22 19:12:00,
2013-02-22 12:17:00,52.9,35.8,27.34,SW,235,7.6,7.6,52,0.00,,---,0.00,VWS V13.01,2013-02-22 19:17:00,
2013-02-22 12:22:00,52.7,35.1,27.34,WNW,285,5.4,8.7,51,0.00,,---,0.00,VWS V13.01,2013-02-22 19:22:00,
2013-02-22 12:27:00,52.9,35.3,27.34,West,271,3.6,5.4,51,0.00,,---,0.00,VWS V13.01,2013-02-22 19:27:00,
2013-02-22 12:32:00,53.1,35.4,27.34,WNW,303,0.0,5.4,51,0.00,,---,0.00,VWS V13.01,2013-02-22 19:32:00,
2013-02-22 12:38:00,53.2,35.6,27.34,SW,217,5.4,5.8,51,0.00,,---,0.00,VWS V13.01,2013-02-22 19:38:00,
2013-02-22 12:43:00,54.1,35.9,27.34,SSW,206,6.3,6.3,50,0.00,,---,0.00,VWS V13.01,2013-02-22 19:43:00,
2013-02-22 12:48:00,54.7,35.4,27.34,West,269,3.1,6.3,48,0.00,,---,0.00,VWS V13.01,2013-02-22 19:48:00,
2013-02-22 12:53:00,54.9,35.6,27.32,SW,233,0.0,4.9,48,0.00,,---,0.00,VWS V13.01,2013-02-22 19:53:00,
2013-02-22 12:58:00,55.0,35.2,27.32,SSW,198,0.0,5.8,47,0.00,,---,0.00,VWS V13.01,2013-02-22 19:58:00,
2013-02-22 13:03:00,55.0,35.2,27.32,SSW,208,5.4,7.6,47,0.00,,---,0.00,VWS V13.01,2013-02-22 20:03:00,
2013-02-22 13:08:00,55.9,35.5,27.32,WSW,252,7.6,12.3,46,0.00,,---,0.00,VWS V13.01,2013-02-22 20:08:00,
2013-02-22 13:14:00,55.2,34.8,27.32,WNW,301,0.0,6.3,46,0.00,,---,0.00,VWS V13.01,2013-02-22 20:14:00,
2013-02-22 13:19:00,55.2,34.8,27.32,WSW,255,5.4,8.3,46,0.00,,---,0.00,VWS V13.01,2013-02-22 20:19:00,
2013-02-22 13:24:00,56.1,35.6,27.32,SSW,211,0.0,6.3,46,0.00,,---,0.00,VWS V13.01,2013-02-22 20:24:00,
2013-02-22 13:29:00,56.3,35.8,27.32,SSW,193,3.1,6.7,46,0.00,,---,0.00,VWS V13.01,2013-02-22 20:29:00,
2013-02-22 13:35:00,56.8,36.3,27.32,SSW,212,4.0,10.1,46,0.00,,---,0.00,VWS V13.01,2013-02-22 20:35:00,
2013-02-22 13:40:00,56.1,35.1,27.32,West,262,0.0,7.6,45,0.00,,---,0.00,VWS V13.01,2013-02-22 20:40:00,
2013-02-22 13:46:00,55.9,34.9,27.32,WSW,241,5.4,6.3,45,0.00,,---,0.00,VWS V13.01,2013-02-22 20:46:00,
2013-02-22 13:51:00,55.6,34.6,27.29,WSW,243,5.4,6.3,45,0.00,,---,0.00,VWS V13.01,2013-02-22 20:51:00,
2013-02-22 13:56:00,55.2,34.3,27.29,West,281,6.3,9.2,45,0.00,,---,0.00,VWS V13.01,2013-02-22 20:56:00,
2013-02-22 14:01:00,55.2,34.8,27.29,South,187,5.4,6.7,46,0.00,,---,0.00,VWS V13.01,2013-02-22 21:01:00,
2013-02-22 14:07:00,55.9,35.5,27.32,South,188,5.8,8.7,46,0.00,,---,0.00,VWS V13.01,2013-02-22 21:07:00,
2013-02-22 14:12:00,56.3,35.8,27.32,SSW,197,4.0,8.1,46,0.00,,---,0.00,VWS V13.01,2013-02-22 21:12:00,
2013-02-22 14:17:00,55.6,34.6,27.32,SW,233,2.7,3.6,45,0.00,,---,0.00,VWS V13.01,2013-02-22 21:17:00,
2013-02-22 14:22:00,55.4,34.4,27.32,NW,305,5.4,10.1,45,0.00,,---,0.00,VWS V13.01,2013-02-22 21:22:00,
2013-02-22 14:27:00,56.1,35.1,27.32,West,276,3.6,8.1,45,0.00,,---,0.00,VWS V13.01,2013-02-22 21:27:00,
2013-02-22 14:33:00,55.4,33.9,27.32,NW,310,7.6,8.7,44,0.00,,---,0.00,VWS V13.01,2013-02-22 21:33:00,
2013-02-22 14:38:00,55.2,34.3,27.29,NNW,339,2.7,5.4,45,0.00,,---,0.00,VWS V13.01,2013-02-22 21:38:00,
2013-02-22 14:43:00,55.6,34.0,27.29,NW,305,3.1,5.8,44,0.00,,---,0.00,VWS V13.01,2013-02-22 21:43:00,
2013-02-22 14:48:00,55.6,32.9,27.29,WSW,253,6.3,8.3,42,0.00,,---,0.00,VWS V13.01,2013-02-22 21:48:00,
2013-02-22 14:54:00,54.7,32.6,27.29,West,280,12.8,12.8,43,0.00,,---,0.00,VWS V13.01,2013-02-22 21:54:00,
2013-02-22 14:59:00,54.5,32.5,27.29,WSW,243,4.9,9.6,43,0.00,,---,0.00,VWS V13.01,2013-02-22 21:59:00,
2013-02-22 15:04:00,54.5,32.5,27.29,WNW,301,5.8,7.2,43,0.00,,---,0.00,VWS V13.01,2013-02-22 22:04:00,
2013-02-22 15:09:00,54.0,32.0,27.32,West,278,7.6,8.1,43,0.00,,---,0.00,VWS V13.01,2013-02-22 22:09:00,
2013-02-22 15:14:00,54.7,32.6,27.32,West,270,5.4,6.3,43,0.00,,---,0.00,VWS V13.01,2013-02-22 22:14:00,
2013-02-22 15:19:00,55.0,32.4,27.32,WNW,289,6.3,8.1,42,0.00,,---,0.00,VWS V13.01,2013-02-22 22:19:00,
2013-02-22 15:25:00,55.2,32.5,27.32,WNW,299,8.7,10.5,42,0.00,,---,0.00,VWS V13.01,2013-02-22 22:25:00,
2013-02-22 15:30:00,55.2,32.5,27.32,WNW,291,0.0,5.8,42,0.00,,---,0.00,VWS V13.01,2013-02-22 22:30:00,
2013-02-22 15:35:00,55.0,32.4,27.32,West,270,8.3,8.3,42,0.00,,---,0.00,VWS V13.01,2013-02-22 22:35:00,
2013-02-22 15:41:00,55.0,32.4,27.29,WSW,255,4.9,10.1,42,0.00,,---,0.00,VWS V13.01,2013-02-22 22:41:00,
2013-02-22 15:46:00,55.0,32.4,27.29,West,267,7.6,7.6,42,0.00,,---,0.00,VWS V13.01,2013-02-22 22:46:00,
2013-02-22 15:51:00,55.0,31.8,27.29,WNW,302,6.3,11.0,41,0.00,,---,0.00,VWS V13.01,2013-02-22 22:51:00,
2013-02-22 15:56:00,54.7,31.5,27.29,West,278,5.8,8.1,41,0.00,,---,0.00,VWS V13.01,2013-02-22 22:56:00,
2013-02-22 16:02:00,54.7,31.5,27.29,West,268,7.2,8.7,41,0.00,,---,0.00,VWS V13.01,2013-02-22 23:02:00,
2013-02-22 16:07:00,54.7,31.5,27.29,WNW,294,8.3,8.3,41,0.00,,---,0.00,VWS V13.01,2013-02-22 23:07:00,
2013-02-22 16:12:00,54.7,31.5,27.29,NNW,330,8.3,8.3,41,0.00,,---,0.00,VWS V13.01,2013-02-22 23:12:00,
2013-02-22 16:17:00,54.5,31.3,27.29,WNW,294,5.4,8.1,41,0.00,,---,0.00,VWS V13.01,2013-02-22 23:17:00,
2013-02-22 16:22:00,54.1,31.0,27.29,West,278,7.2,11.0,41,0.00,,---,0.00,VWS V13.01,2013-02-22 23:22:00,
2013-02-22 16:28:00,54.3,31.1,27.29,WSW,257,12.3,12.3,41,0.00,,---,0.00,VWS V13.01,2013-02-22 23:28:00,
2013-02-22 16:33:00,54.3,31.1,27.29,WNW,303,4.0,7.6,41,0.00,,---,0.00,VWS V13.01,2013-02-22 23:33:00,
2013-02-22 16:38:00,54.1,31.0,27.29,WNW,289,4.9,6.3,41,0.00,,---,0.00,VWS V13.01,2013-02-22 23:38:00,
2013-02-22 16:43:00,54.0,31.4,27.29,WNW,287,5.4,9.6,42,0.00,,---,0.00,VWS V13.01,2013-02-22 23:43:00,
2013-02-22 16:48:00,54.1,31.0,27.29,West,260,3.6,5.4,41,0.00,,---,0.00,VWS V13.01,2013-02-22 23:48:00,
2013-02-22 16:53:00,54.0,30.8,27.29,WNW,292,6.7,8.7,41,0.00,,---,0.00,VWS V13.01,2013-02-22 23:53:00,
2013-02-22 16:59:00,53.8,30.6,27.29,WNW,302,10.5,10.5,41,0.00,,---,0.00,VWS V13.01,2013-02-22 23:59:00,
2013-02-22 17:04:00,53.4,30.9,27.29,NW,308,2.7,8.7,42,0.00,,---,0.00,VWS V13.01,2013-02-23 00:04:00,
2013-02-22 17:09:00,53.4,30.9,27.29,West,275,6.3,8.1,42,0.00,,---,0.00,VWS V13.01,2013-02-23 00:09:00,
2013-02-22 17:14:00,53.2,30.2,27.29,NW,307,4.0,6.7,41,0.00,,---,0.00,VWS V13.01,2013-02-23 00:14:00,
2013-02-22 17:19:00,53.1,30.0,27.29,WNW,296,8.3,8.7,41,0.00,,---,0.00,VWS V13.01,2013-02-23 00:19:00,
2013-02-22 17:24:00,52.9,30.4,27.29,WNW,285,4.0,8.7,42,0.00,,---,0.00,VWS V13.01,2013-02-23 00:24:00,
2013-02-22 17:30:00,52.9,30.4,27.29,West,263,5.8,8.3,42,0.00,,---,0.00,VWS V13.01,2013-02-23 00:30:00,
2013-02-22 17:35:00,52.5,29.5,27.29,WNW,293,4.0,7.6,41,0.00,,---,0.00,VWS V13.01,2013-02-23 00:35:00,
2013-02-22 17:40:00,52.3,30.0,27.29,WNW,301,3.1,10.5,42,0.00,,---,0.00,VWS V13.01,2013-02-23 00:40:00,
2013-02-22 17:45:00,52.2,29.8,27.29,NW,304,3.6,8.1,42,0.00,,---,0.00,VWS V13.01,2013-02-23 00:45:00,
2013-02-22 17:50:00,51.8,29.5,27.29,WNW,288,8.1,9.6,42,0.00,,---,0.00,VWS V13.01,2013-02-23 00:50:00,
2013-02-22 17:56:00,51.6,29.9,27.29,NW,309,2.7,5.8,43,0.00,,---,0.00,VWS V13.01,2013-02-23 00:56:00,
2013-02-22 18:01:00,51.3,29.5,27.29,NW,307,5.4,8.1,43,0.00,,---,0.00,VWS V13.01,2013-02-23 01:01:00,
2013-02-22 18:06:00,51.1,29.4,27.32,WNW,290,4.9,5.8,43,0.00,,---,0.00,VWS V13.01,2013-02-23 01:06:00,
2013-02-22 18:12:00,50.7,29.6,27.32,NW,321,5.4,5.8,44,0.00,,---,0.00,VWS V13.01,2013-02-23 01:12:00,
2013-02-22 18:17:00,50.5,29.5,27.32,WNW,296,5.8,6.3,44,0.00,,---,0.00,VWS V13.01,2013-02-23 01:17:00,
2013-02-22 18:22:00,50.4,29.3,27.32,WNW,282,5.8,5.8,44,0.00,,---,0.00,VWS V13.01,2013-02-23 01:22:00,
2013-02-22 18:27:00,50.2,29.1,27.32,WNW,288,7.6,8.7,44,0.00,,---,0.00,VWS V13.01,2013-02-23 01:27:00,
2013-02-22 18:32:00,50.0,28.4,27.32,NW,305,5.4,5.4,43,0.00,,---,0.00,VWS V13.01,2013-02-23 01:32:00,
2013-02-22 18:37:00,49.8,28.8,27.32,WNW,299,3.1,4.5,44,0.00,,---,0.00,VWS V13.01,2013-02-23 01:37:00,
2013-02-22 18:42:00,49.6,28.6,27.32,WNW,290,4.0,5.4,44,0.00,,---,0.00,VWS V13.01,2013-02-23 01:42:00,
2013-02-22 18:47:00,49.5,28.5,27.32,WNW,283,5.8,5.8,44,0.00,,---,0.00,VWS V13.01,2013-02-23 01:47:00,
2013-02-22 18:52:00,49.3,28.3,27.32,West,278,4.0,5.8,44,0.00,,---,0.00,VWS V13.01,2013-02-23 01:52:00,
2013-02-22 18:58:00,49.1,27.6,27.32,WNW,295,2.7,4.9,43,0.00,,---,0.00,VWS V13.01,2013-02-23 01:58:00,
2013-02-22 19:03:00,48.9,27.4,27.32,WNW,292,2.7,5.8,43,0.00,,---,0.00,VWS V13.01,2013-02-23 02:03:00,
2013-02-22 19:08:00,48.7,27.3,27.32,West,264,4.9,6.3,43,0.00,,---,0.00,VWS V13.01,2013-02-23 02:08:00,
2013-02-22 19:13:00,48.7,27.3,27.32,WNW,295,3.6,5.4,43,0.00,,---,0.00,VWS V13.01,2013-02-23 02:13:00,
2013-02-22 19:18:00,48.6,26.5,27.32,WNW,296,2.7,5.8,42,0.00,,---,0.00,VWS V13.01,2013-02-23 02:18:00,
2013-02-22 19:23:00,48.4,26.4,27.34,WNW,294,2.7,3.6,42,0.00,,---,0.00,VWS V13.01,2013-02-23 02:23:00,
2013-02-22 19:29:00,48.2,26.2,27.34,WNW,290,0.0,0.0,42,0.00,,---,0.00,VWS V13.01,2013-02-23 02:29:00,
2013-02-22 19:34:00,48.0,26.6,27.34,WNW,291,0.0,3.6,43,0.00,,---,0.00,VWS V13.01,2013-02-23 02:34:00,
2013-02-22 19:39:00,47.8,25.9,27.34,WNW,297,0.0,0.0,42,0.00,,---,0.00,VWS V13.01,2013-02-23 02:39:00,
2013-02-22 19:45:00,47.7,25.7,27.34,WNW,296,0.0,0.0,42,0.00,,---,0.00,VWS V13.01,2013-02-23 02:45:00,
2013-02-22 19:50:00,47.5,25.5,27.34,WNW,296,0.0,0.0,42,0.00,,---,0.00,VWS V13.01,2013-02-23 02:50:00,
2013-02-22 19:55:00,47.5,25.5,27.34,WNW,292,0.0,0.0,42,0.00,,---,0.00,VWS V13.01,2013-02-23 02:55:00,
2013-02-22 20:00:00,47.3,25.4,27.34,WNW,292,0.0,0.0,42,0.00,,---,0.00,VWS V13.01,2013-02-23 03:00:00,
2013-02-22 20:05:00,47.3,25.4,27.34,WNW,292,0.0,0.0,42,0.00,,---,0.00,VWS V13.01,2013-02-23 03:05:00,
2013-02-22 20:10:00,47.3,25.4,27.34,WNW,294,0.0,0.0,42,0.00,,---,0.00,VWS V13.01,2013-02-23 03:10:00,
2013-02-22 20:15:00,46.9,25.6,27.34,WNW,294,0.0,0.0,43,0.00,,---,0.00,VWS V13.01,2013-02-23 03:15:00,
2013-02-22 20:20:00,46.8,25.5,27.34,WNW,294,0.0,0.0,43,0.00,,---,0.00,VWS V13.01,2013-02-23 03:20:00,
2013-02-22 20:26:00,46.6,25.3,27.34,WNW,294,0.0,0.0,43,0.00,,---,0.00,VWS V13.01,2013-02-23 03:26:00,
2013-02-22 20:31:00,46.4,25.1,27.34,WNW,294,0.0,0.0,43,0.00,,---,0.00,VWS V13.01,2013-02-23 03:31:00,
2013-02-22 20:36:00,46.2,25.5,27.34,WNW,292,0.0,0.0,44,0.00,,---,0.00,VWS V13.01,2013-02-23 03:36:00,
2013-02-22 20:41:00,46.0,25.4,27.34,SW,234,0.0,0.0,44,0.00,,---,0.00,VWS V13.01,2013-02-23 03:41:00,
2013-02-22 20:47:00,46.0,25.4,27.34,WSW,258,0.0,0.0,44,0.00,,---,0.00,VWS V13.01,2013-02-23 03:47:00,
2013-02-22 20:52:00,45.9,25.2,27.34,WSW,239,0.0,0.0,44,0.00,,---,0.00,VWS V13.01,2013-02-23 03:52:00,
2013-02-22 20:57:00,45.5,25.4,27.34,WSW,239,0.0,0.0,45,0.00,,---,0.00,VWS V13.01,2013-02-23 03:57:00,
2013-02-22 21:02:00,45.1,25.6,27.34,WSW,239,0.0,0.0,46,0.00,,---,0.00,VWS V13.01,2013-02-23 04:02:00,
2013-02-22 21:07:00,44.8,25.8,27.34,WSW,239,0.0,0.0,47,0.00,,---,0.00,VWS V13.01,2013-02-23 04:07:00,
2013-02-22 21:13:00,44.4,26.0,27.34,SW,217,0.0,0.0,48,0.00,,---,0.00,VWS V13.01,2013-02-23 04:13:00,
2013-02-22 21:18:00,44.2,26.3,27.34,SW,217,0.0,0.0,49,0.00,,---,0.00,VWS V13.01,2013-02-23 04:18:00,
2013-02-22 21:23:00,43.9,26.0,27.34,SW,217,0.0,0.0,49,0.00,,---,0.00,VWS V13.01,2013-02-23 04:23:00,
2013-02-22 21:28:00,43.5,26.1,27.34,SW,217,0.0,0.0,50,0.00,,---,0.00,VWS V13.01,2013-02-23 04:28:00,
2013-02-22 21:33:00,43.2,26.3,27.34,SW,217,0.0,0.0,51,0.00,,---,0.00,VWS V13.01,2013-02-23 04:33:00,
2013-02-22 21:38:00,42.8,26.4,27.34,SW,217,0.0,0.0,52,0.00,,---,0.00,VWS V13.01,2013-02-23 04:38:00,
2013-02-22 21:44:00,42.8,26.9,27.34,SW,217,0.0,0.0,53,0.00,,---,0.00,VWS V13.01,2013-02-23 04:44:00,
2013-02-22 21:49:00,42.8,26.9,27.34,NNW,334,0.0,0.0,53,0.00,,---,0.00,VWS V13.01,2013-02-23 04:49:00,
2013-02-22 21:54:00,42.1,27.1,27.34,NNW,342,0.0,0.0,55,0.00,,---,0.00,VWS V13.01,2013-02-23 04:54:00,
2013-02-22 21:59:00,41.7,27.6,27.34,NNE,15,0.0,0.0,57,0.00,,---,0.00,VWS V13.01,2013-02-23 04:59:00,
2013-02-22 22:00:00,41.7,27.6,27.34,NNE,32,0.0,0.0,57,0.00,,---,0.00,VWS V13.01,2013-02-23 05:00:00,
2013-02-22 22:03:00,41.5,27.5,27.34,ENE,70,0.0,0.0,57,0.00,,---,0.00,VWS V13.01,2013-02-23 05:03:00,
2013-02-22 22:04:00,41.5,27.5,27.34,ENE,70,0.0,0.0,57,0.00,,---,0.00,VWS V13.01,2013-02-23 05:04:00,
2013-02-22 22:09:00,41.7,27.6,27.37,ENE,70,0.0,0.0,57,0.00,,---,0.00,VWS V13.01,2013-02-23 05:09:00,
2013-02-22 22:15:00,41.7,27.6,27.37,ENE,70,0.0,0.0,57,0.00,,---,0.00,VWS V13.01,2013-02-23 05:15:00,
2013-02-22 22:20:00,41.5,27.9,27.37,ENE,70,0.0,0.0,58,0.00,,---,0.00,VWS V13.01,2013-02-23 05:20:00,
2013-02-22 22:25:00,41.4,27.7,27.37,ENE,70,0.0,0.0,58,0.00,,---,0.00,VWS V13.01,2013-02-23 05:25:00,
2013-02-22 22:30:00,41.4,27.7,27.37,ENE,70,0.0,0.0,58,0.00,,---,0.00,VWS V13.01,2013-02-23 05:30:00,
2013-02-22 22:35:00,41.2,27.5,27.37,ESE,116,0.0,0.0,58,0.00,,---,0.00,VWS V13.01,2013-02-23 05:35:00,
2013-02-22 22:40:00,41.4,27.7,27.37,ESE,123,0.0,0.0,58,0.00,,---,0.00,VWS V13.01,2013-02-23 05:40:00,
2013-02-22 22:46:00,41.5,27.5,27.37,SE,128,2.7,5.4,57,0.00,,---,0.00,VWS V13.01,2013-02-23 05:46:00,
2013-02-22 22:51:00,41.5,27.5,27.34,ESE,118,3.6,4.5,57,0.00,,---,0.00,VWS V13.01,2013-02-23 05:51:00,
2013-02-22 22:56:00,41.4,27.3,27.34,ESE,123,0.0,4.0,57,0.00,,---,0.00,VWS V13.01,2013-02-23 05:56:00,
2013-02-22 23:02:00,41.4,27.7,27.34,ESE,123,0.0,0.0,58,0.00,,---,0.00,VWS V13.01,2013-02-23 06:02:00,
2013-02-22 23:07:00,41.0,27.4,27.37,ESE,123,0.0,0.0,58,0.00,,---,0.00,VWS V13.01,2013-02-23 06:07:00,
2013-02-22 23:12:00,40.8,27.6,27.37,ESE,114,0.0,0.0,59,0.00,,---,0.00,VWS V13.01,2013-02-23 06:12:00,
2013-02-22 23:18:00,40.6,27.5,27.37,ESE,114,0.0,0.0,59,0.00,,---,0.00,VWS V13.01,2013-02-23 06:18:00,
2013-02-22 23:23:00,40.5,27.7,27.34,ESE,114,0.0,0.0,60,0.00,,---,0.00,VWS V13.01,2013-02-23 06:23:00,
2013-02-22 23:28:00,40.3,27.9,27.34,ESE,114,0.0,0.0,61,0.00,,---,0.00,VWS V13.01,2013-02-23 06:28:00,
2013-02-22 23:33:00,40.1,27.8,27.34,ESE,114,0.0,0.0,61,0.00,,---,0.00,VWS V13.01,2013-02-23 06:33:00,
2013-02-22 23:38:00,39.9,28.0,27.34,ESE,114,0.0,0.0,62,0.00,,---,0.00,VWS V13.01,2013-02-23 06:38:00,
2013-02-22 23:44:00,39.7,27.8,27.34,ESE,114,0.0,0.0,62,0.00,,---,0.00,VWS V13.01,2013-02-23 06:44:00,
2013-02-22 23:49:00,39.6,28.0,27.34,ESE,114,0.0,0.0,63,0.00,,---,0.00,VWS V13.01,2013-02-23 06:49:00,
2013-02-22 23:54:00,39.6,28.4,27.37,ESE,114,0.0,0.0,64,0.00,,---,0.00,VWS V13.01,2013-02-23 06:54:00,